[Date Prev][Date Next][Thread Prev][Thread Next] - [Date Index][Thread Index][Author Index]

2 Line ISS Keps 11-25



ISS
1 25544U 98067A   03329.17070602  .00029527  00000-0  30343-3 0  8103
2 25544  51.6301 288.2346 0005981 171.4815   8.6039 15.64623592286163


----
Via the sarex mailing list at AMSAT.ORG courtesy of AMSAT-NA.
To unsubscribe, send "unsubscribe sarex" to Majordomo@amsat.org



AMSAT Top AMSAT Home